• In Germany
  • List of Countries
  • For 7 days
  • Water Temperature
  • Satellite Maps
  • Weather Map
  • Weather Widgets
  • user-avatar
    Login

    Hourly Weather Sliven

    Today, 21 May, Monday

    Time Temperature Precipitation Wind Pressure Humidity
    00:00 +14°C° 0 mm 1 mps 734 mmHg 90%
    01:00 +14°C° 0 mm 1 mps 734 mmHg 90%
    02:00 +14°C° 0 mm 1 mps 734 mmHg 90%
    03:00 +13°C° 0 mm 1 mps 734 mmHg 90%
    04:00 +13°C° 0 mm 1 mps 733 mmHg 90%
    05:00 +13°C° 0 mm 1 mps 733 mmHg 90%
    06:00 +15°C° 0 mm 1 mps 734 mmHg 84%
    07:00 +17°C° 0 mm 2 mps 734 mmHg 79%
    08:00 +18°C° 0 mm 2 mps 734 mmHg 73%
    09:00 +20°C° 0 mm 2 mps 734 mmHg 69%
    10:00 +21°C° 0 mm 3 mps 735 mmHg 64%
    11:00 +22°C° 0 mm 3 mps 735 mmHg 60%
    12:00 +22°C° 0.1 mm 3 mps 734 mmHg 60%
    13:00 +24°C° 0.1 mm 3 mps 734 mmHg 59%
    14:00 +23°C° 0.1 mm 4 mps 734 mmHg 59%
    15:00 +23°C° 0.3 mm 4 mps 734 mmHg 63%
    16:00 +22°C° 0.3 mm 4 mps 733 mmHg 67%
    17:00 +21°C° 0.3 mm 4 mps 733 mmHg 70%
    18:00 +20°C° 0 mm 3 mps 733 mmHg 77%
    19:00 +18°C° 0 mm 3 mps 733 mmHg 84%
    20:00 +16°C° 0 mm 3 mps 733 mmHg 91%
    21:00 +15°C° 0 mm 2 mps 733 mmHg 93%
    22:00 +15°C° 0 mm 2 mps 734 mmHg 95%
    23:00 +14°C° 0 mm 2 mps 734 mmHg 97%

    Tomorrow, 22 May, Tuesday

    Time Temperature Precipitation Wind Pressure Humidity
    00:00 +14°C° 0 mm 2 mps 734 mmHg 96%
    01:00 +13°C° 0 mm 2 mps 734 mmHg 96%
    02:00 +13°C° 0 mm 2 mps 734 mmHg 95%
    03:00 +13°C° 0 mm 1 mps 734 mmHg 95%
    04:00 +13°C° 0 mm 1 mps 734 mmHg 95%
    05:00 +13°C° 0 mm 1 mps 734 mmHg 94%
    06:00 +14°C° 0 mm 1 mps 734 mmHg 90%
    07:00 +16°C° 0 mm 1 mps 734 mmHg 85%
    08:00 +17°C° 0 mm 2 mps 735 mmHg 81%
    09:00 +19°C° 0 mm 2 mps 735 mmHg 74%
    10:00 +20°C° 0 mm 2 mps 735 mmHg 67%
    11:00 +23°C° 0 mm 2 mps 735 mmHg 61%
    12:00 +24°C° 0 mm 2 mps 735 mmHg 58%
    13:00 +24°C° 0 mm 3 mps 735 mmHg 55%
    14:00 +25°C° 0 mm 3 mps 735 mmHg 52%
    15:00 +25°C° 0 mm 3 mps 735 mmHg 55%
    16:00 +24°C° 0 mm 3 mps 734 mmHg 58%
    17:00 +23°C° 0 mm 4 mps 734 mmHg 61%
    18:00 +21°C° 0 mm 3 mps 734 mmHg 69%
    19:00 +19°C° 0 mm 3 mps 734 mmHg 77%
    20:00 +16°C° 0 mm 2 mps 734 mmHg 85%
    21:00 +16°C° 0 mm 2 mps 735 mmHg 86%
    22:00 +15°C° 0 mm 2 mps 735 mmHg 88%
    23:00 +14°C° 0 mm 1 mps 735 mmHg 90%

    Day after tomorrow, 23 May, Wednesday

    Time Temperature Precipitation Wind Pressure Humidity
    00:00 +14°C° 0 mm 1 mps 735 mmHg 89%
    01:00 +13°C° 0 mm 1 mps 735 mmHg 89%
    02:00 +13°C° 0 mm 1 mps 735 mmHg 89%
    03:00 +13°C° 0 mm 1 mps 735 mmHg 88%
    04:00 +13°C° 0 mm 1 mps 735 mmHg 88%
    05:00 +13°C° 0 mm 1 mps 735 mmHg 88%
    06:00 +15°C° 0 mm 1 mps 735 mmHg 82%
    07:00 +18°C° 0 mm 1 mps 735 mmHg 75%
    08:00 +20°C° 0 mm 1 mps 736 mmHg 69%
    09:00 +21°C° 0 mm 2 mps 736 mmHg 63%
    10:00 +23°C° 0 mm 2 mps 736 mmHg 57%
    11:00 +25°C° 0 mm 2 mps 736 mmHg 52%
    12:00 +25°C° 0 mm 2 mps 735 mmHg 50%
    13:00 +26°C° 0 mm 3 mps 735 mmHg 48%
    14:00 +27°C° 0 mm 3 mps 735 mmHg 47%
    15:00 +26°C° 0 mm 3 mps 735 mmHg 50%
    16:00 +26°C° 0 mm 3 mps 734 mmHg 53%
    17:00 +25°C° 0 mm 3 mps 734 mmHg 57%
    18:00 +22°C° 0 mm 3 mps 734 mmHg 65%
    19:00 +20°C° 0 mm 2 mps 734 mmHg 74%
    20:00 +17°C° 0 mm 2 mps 733 mmHg 82%
    21:00 +17°C° 0 mm 2 mps 733 mmHg 84%
    22:00 +16°C° 0 mm 2 mps 733 mmHg 86%
    23:00 +15°C° 0 mm 1 mps 733 mmHg 88%

    24 May, Thursday

    Time Temperature Precipitation Wind Pressure Humidity
    00:00 +15°C° 0 mm 1 mps 733 mmHg 87%
    01:00 +14°C° 0 mm 1 mps 733 mmHg 87%
    02:00 +14°C° 0 mm 1 mps 732 mmHg 87%
    03:00 +14°C° 0 mm 1 mps 732 mmHg 86%
    04:00 +13°C° 0 mm 1 mps 732 mmHg 85%
    05:00 +13°C° 0 mm 1 mps 732 mmHg 85%
    06:00 +15°C° 0 mm 1 mps 732 mmHg 78%
    07:00 +19°C° 0 mm 1 mps 732 mmHg 71%
    08:00 +21°C° 0 mm 1 mps 733 mmHg 64%
    09:00 +21°C° 0 mm 2 mps 733 mmHg 60%
    10:00 +24°C° 0 mm 2 mps 733 mmHg 56%
    11:00 +25°C° 0 mm 3 mps 733 mmHg 52%
    12:00 +26°C° 0.1 mm 3 mps 732 mmHg 52%
    13:00 +26°C° 0.1 mm 3 mps 732 mmHg 52%
    14:00 +27°C° 0.1 mm 4 mps 731 mmHg 52%
    15:00 +26°C° 0.3 mm 4 mps 731 mmHg 56%
    16:00 +25°C° 0.3 mm 4 mps 731 mmHg 61%
    17:00 +25°C° 0.3 mm 4 mps 730 mmHg 65%
    18:00 +22°C° 0.2 mm 3 mps 730 mmHg 72%
    19:00 +20°C° 0.2 mm 2 mps 730 mmHg 79%
    20:00 +18°C° 0.2 mm 2 mps 730 mmHg 85%
    21:00 +19°C° 0 mm 1 mps 730 mmHg 86%
    22:00 +18°C° 0 mm 1 mps 730 mmHg 87%
    23:00 +16°C° 0 mm 1 mps 730 mmHg 87%

    25 May, Friday

    Time Temperature Precipitation Wind Pressure Humidity
    00:00 +16°C° 0 mm 1 mps 730 mmHg 87%
    01:00 +16°C° 0 mm 2 mps 730 mmHg 87%
    02:00 +16°C° 0 mm 2 mps 730 mmHg 86%
    03:00 +15°C° 0 mm 2 mps 730 mmHg 87%
    04:00 +15°C° 0 mm 2 mps 730 mmHg 88%
    05:00 +15°C° 0 mm 2 mps 730 mmHg 88%
    06:00 +17°C° 0 mm 3 mps 730 mmHg 83%
    07:00 +19°C° 0 mm 3 mps 730 mmHg 77%
    08:00 +21°C° 0 mm 4 mps 730 mmHg 71%
    09:00 +22°C° 0.1 mm 4 mps 730 mmHg 66%
    10:00 +23°C° 0.1 mm 4 mps 730 mmHg 61%
    11:00 +26°C° 0.1 mm 5 mps 731 mmHg 56%
    12:00 +26°C° 0.2 mm 5 mps 730 mmHg 56%
    13:00 +26°C° 0.2 mm 5 mps 730 mmHg 56%
    14:00 +27°C° 0.2 mm 5 mps 730 mmHg 56%
    15:00 +26°C° 0.6 mm 4 mps 730 mmHg 60%
    16:00 +25°C° 0.6 mm 4 mps 730 mmHg 64%
    17:00 +25°C° 0.6 mm 4 mps 730 mmHg 68%
    18:00 +22°C° 0.3 mm 3 mps 730 mmHg 74%
    19:00 +20°C° 0.3 mm 3 mps 730 mmHg 80%
    20:00 +19°C° 0.3 mm 2 mps 730 mmHg 85%
    21:00 +18°C° 0 mm 2 mps 730 mmHg 86%
    22:00 +17°C° 0 mm 2 mps 730 mmHg 87%
    23:00 +17°C° 0 mm 2 mps 730 mmHg 88%

    26 May, Saturday

    Time Temperature Precipitation Wind Pressure Humidity
    00:00 +17°C° 0 mm 2 mps 730 mmHg 89%
    01:00 +16°C° 0 mm 2 mps 730 mmHg 89%
    02:00 +16°C° 0 mm 2 mps 730 mmHg 90%
    03:00 +16°C° 0 mm 2 mps 730 mmHg 91%
    04:00 +16°C° 0 mm 2 mps 731 mmHg 91%
    05:00 +15°C° 0 mm 2 mps 731 mmHg 92%
    06:00 +17°C° 0 mm 2 mps 731 mmHg 88%
    07:00 +19°C° 0 mm 3 mps 732 mmHg 84%
    08:00 +20°C° 0 mm 3 mps 732 mmHg 80%
    09:00 +21°C° 0.2 mm 4 mps 732 mmHg 75%
    10:00 +22°C° 0.2 mm 4 mps 732 mmHg 70%
    11:00 +23°C° 0.2 mm 4 mps 732 mmHg 66%
    12:00 +25°C° 0 mm 5 mps 732 mmHg 63%
    13:00 +25°C° 0 mm 5 mps 732 mmHg 61%
    14:00 +26°C° 0 mm 5 mps 732 mmHg 58%
    15:00 +25°C° 0 mm 5 mps 732 mmHg 60%
    16:00 +25°C° 0 mm 5 mps 731 mmHg 62%
    17:00 +23°C° 0 mm 4 mps 731 mmHg 64%
    18:00 +22°C° 0 mm 4 mps 731 mmHg 71%
    19:00 +20°C° 0 mm 3 mps 731 mmHg 78%
    20:00 +18°C° 0 mm 2 mps 731 mmHg 86%
    21:00 +18°C° 0 mm 2 mps 731 mmHg 88%
    22:00 +17°C° 0 mm 2 mps 731 mmHg 90%
    23:00 +16°C° 0 mm 2 mps 731 mmHg 92%
    Show more